�N����,����,�~����,�C��,���x,�C��,����,���ϕ���,�ő�u�ԕ���,�ő厞����,���˗�,�I�_���x,�n�����x,�ő啗���N��,DTYPE
"23/11/09","00:10",0.0,10.6,87.6,1018.5,317.4,1.8,2.4,325.0,0.00,8.7,15.8,"00:06:48",1
"23/11/09","00:20",0.0,10.2,88.0,1018.5,296.5,1.6,1.9,313.0,0.00,8.3,15.8,"00:12:24",1
"23/11/09","00:30",0.0,10.6,88.8,1018.5,303.8,1.8,2.8,309.9,0.00,8.9,15.8,"00:28:48",1
"23/11/09","00:40",0.0,11.0,89.3,1018.7,308.5,2.2,3.4,309.9,0.00,9.3,15.8,"00:34:48",1
"23/11/09","00:50",0.0,11.1,89.7,1018.5,310.4,2.5,3.4,312.8,0.00,9.5,15.9,"00:44:04",1
"23/11/09","01:00",0.0,11.1,90.1,1018.5,305.2,2.2,3.4,320.1,0.00,9.6,15.6,"00:52:00",1
"23/11/09","01:10",0.0,11.1,90.3,1018.7,293.6,1.8,2.2,300.2,0.00,9.6,15.8,"01:09:08",1
"23/11/09","01:20",0.0,11.2,90.7,1018.5,298.7,1.8,2.7,310.2,0.00,9.8,15.8,"01:10:50",1
"23/11/09","01:30",0.0,11.3,90.7,1018.7,293.7,1.7,2.9,302.1,0.00,9.9,15.6,"01:21:56",1
"23/11/09","01:40",0.0,11.0,90.8,1018.5,286.3,1.6,2.4,273.7,0.00,9.6,15.7,"01:35:54",1
"23/11/09","01:50",0.0,10.8,91.0,1019.0,301.6,0.7,1.3,281.7,0.00,9.4,15.5,"01:40:24",1
"23/11/09","02:00",0.0,10.5,91.3,1018.5,304.6,1.5,2.8,324.2,0.00,9.2,15.7,"01:58:08",1
"23/11/09","02:10",0.0,10.4,91.5,1018.5,320.8,2.1,2.5,318.9,0.00,9.1,15.6,"02:07:04",1
"23/11/09","02:20",0.0,10.5,91.8,1018.2,309.0,2.0,2.6,324.2,0.00,9.3,15.5,"02:16:00",1
"23/11/09","02:30",0.0,10.7,92.2,1018.2,310.5,2.0,2.7,304.9,0.00,9.5,15.6,"02:26:24",1
"23/11/09","02:40",0.0,10.9,92.4,1018.0,311.8,2.3,2.9,307.1,0.00,9.8,15.4,"02:38:34",1
"23/11/09","02:50",0.0,11.0,92.5,1018.0,303.9,2.2,2.6,325.9,0.00,9.9,15.2,"02:40:16",1
"23/11/09","03:00",0.0,11.0,92.6,1017.8,296.5,1.8,2.2,311.8,0.00,9.9,15.6,"02:56:20",1
"23/11/09","03:10",0.0,10.8,92.7,1018.0,320.5,2.0,2.6,323.8,0.00,9.7,15.3,"03:01:54",1
"23/11/09","03:20",0.0,10.7,92.9,1018.0,290.9,1.6,2.2,312.4,0.00,9.6,15.6,"03:10:48",1
"23/11/09","03:30",0.0,10.9,93.1,1018.2,312.1,2.2,3.6,315.4,0.00,9.9,15.4,"03:22:16",1
"23/11/09","03:40",0.0,10.8,93.1,1018.2,309.8,2.1,2.5,313.4,0.00,9.8,15.4,"03:33:54",1
"23/11/09","03:50",0.0,11.0,93.4,1018.0,295.0,1.8,2.8,314.0,0.00,10.0,15.4,"03:49:16",1
"23/11/09","04:00",0.0,11.1,93.4,1018.2,305.0,2.0,2.8,327.3,0.00,10.1,15.4,"03:53:32",1
"23/11/09","04:10",0.0,11.0,93.4,1018.5,307.7,1.5,2.0,310.9,0.00,10.0,15.2,"04:02:18",1
"23/11/09","04:20",0.0,10.8,93.5,1018.5,304.6,1.6,1.9,306.8,0.00,9.8,15.4,"04:14:00",1
"23/11/09","04:30",0.0,10.8,93.6,1018.7,321.7,2.0,2.6,318.3,0.00,9.9,15.2,"04:28:38",1
"23/11/09","04:40",0.0,10.6,93.8,1018.5,299.1,1.8,2.6,316.5,0.00,9.7,15.3,"04:30:08",1
"23/11/09","04:50",0.0,10.7,93.9,1018.5,297.4,1.7,2.2,318.3,0.00,9.8,15.2,"04:47:44",1
"23/11/09","05:00",0.0,10.7,94.0,1018.2,306.5,1.8,2.4,321.4,0.00,9.8,15.2,"04:59:46",1
"23/11/09","05:10",0.0,10.7,94.1,1019.0,311.6,2.0,2.4,320.4,0.00,9.8,15.4,"05:07:32",1
"23/11/09","05:20",0.0,10.7,94.3,1018.7,293.2,1.7,2.2,316.2,0.00,9.9,15.2,"05:10:08",1
"23/11/09","05:30",0.0,10.9,94.3,1018.7,300.2,1.7,2.6,315.6,0.00,10.1,15.2,"05:29:48",1
"23/11/09","05:40",0.0,11.0,94.4,1018.5,315.8,2.2,2.6,314.2,0.00,10.2,15.2,"05:36:54",1
"23/11/09","05:50",0.0,10.9,94.5,1018.7,312.1,1.5,2.1,319.3,0.00,10.1,15.2,"05:40:08",1
"23/11/09","06:00",0.0,10.9,94.6,1018.7,304.8,1.1,2.5,309.1,0.00,10.1,15.0,"05:59:54",1
"23/11/09","06:10",0.0,10.9,94.8,1018.7,303.6,1.5,2.1,313.3,0.00,10.1,15.1,"06:01:20",1
"23/11/09","06:20",0.0,10.9,94.8,1018.7,308.1,1.7,2.2,305.0,0.00,10.1,15.1,"06:13:38",1
"23/11/09","06:30",0.0,10.9,94.9,1018.5,310.1,1.3,2.1,314.3,0.00,10.2,15.1,"06:20:16",1
"23/11/09","06:40",0.0,10.8,95.1,1018.7,302.1,1.6,2.2,320.9,0.00,10.1,15.1,"06:37:52",1
"23/11/09","06:50",0.0,11.1,95.2,1019.0,310.4,1.8,2.8,317.1,0.00,10.4,15.0,"06:43:30",1
"23/11/09","07:00",0.0,11.2,95.3,1018.7,291.4,1.3,1.8,282.7,0.00,10.5,15.1,"06:52:02",1
"23/11/09","07:10",0.0,11.5,95.4,1019.0,307.9,1.7,2.7,322.8,0.01,10.8,15.1,"07:05:16",1
"23/11/09","07:20",0.0,11.8,95.4,1019.0,297.4,1.1,1.7,295.1,0.01,11.1,15.3,"07:11:32",1
"23/11/09","07:30",0.0,12.0,95.4,1019.0,298.7,1.2,2.0,315.9,0.01,11.3,15.2,"07:28:48",1
"23/11/09","07:40",0.0,12.0,95.4,1018.7,286.8,1.1,1.8,312.2,0.01,11.3,15.0,"07:30:16",1
"23/11/09","07:50",0.0,12.4,95.5,1019.4,312.6,1.2,1.6,326.0,0.03,11.7,15.2,"07:49:44",1
"23/11/09","08:00",0.0,13.0,95.5,1019.4,308.0,1.1,1.6,325.6,0.05,12.3,14.8,"07:50:32",1
"23/11/09","08:10",0.0,13.6,95.4,1019.4,304.2,1.1,1.8,314.4,0.05,12.9,15.1,"08:00:56",1
"23/11/09","08:20",0.0,14.3,95.4,1019.7,285.3,0.3,0.9,289.4,0.08,13.6,15.2,"08:10:12",1
"23/11/09","08:30",0.0,15.1,95.3,1019.7,279.7,0.5,0.9,303.4,0.09,14.4,15.3,"08:20:40",1
"23/11/09","08:40",0.0,16.1,94.9,1019.4,314.2,0.6,1.1,315.2,0.15,15.3,15.0,"08:34:32",1
"23/11/09","08:50",0.0,16.7,94.5,1019.7,298.3,0.5,1.1,267.2,0.12,15.9,15.2,"08:42:16",1
"23/11/09","09:00",0.0,17.1,93.5,1020.1,269.9,0.3,0.6,288.9,0.13,16.1,15.2,"08:50:16",1
"23/11/09","09:10",0.0,17.3,92.8,1020.1,289.3,0.2,0.5,117.0,0.08,16.2,15.2,"09:00:08",1
"23/11/09","09:20",0.0,17.6,91.6,1019.7,280.3,0.2,0.8,256.1,0.14,16.3,15.3,"09:19:04",1
"23/11/09","09:30",0.0,17.6,88.6,1019.7,215.1,0.7,1.4,211.5,0.22,15.7,15.2,"09:28:00",1
"23/11/09","09:40",0.0,18.9,83.0,1019.7,223.0,0.6,1.4,231.6,0.22,16.0,15.3,"09:37:28",1
"23/11/09","09:50",0.0,19.7,76.6,1019.4,254.3,0.8,2.2,248.4,0.24,15.5,15.4,"09:49:52",1
"23/11/09","10:00",0.0,20.2,72.8,1019.2,237.6,1.2,2.0,250.9,0.24,15.2,15.3,"09:53:20",1
"23/11/09","10:10",0.0,20.3,71.0,1018.7,218.2,0.8,2.0,238.8,0.24,14.9,15.4,"10:00:02",1
"23/11/09","10:20",0.0,20.9,70.1,1018.7,266.3,1.0,1.9,353.7,0.28,15.3,15.8,"10:18:00",1
"23/11/09","10:30",0.0,22.0,68.5,1018.2,284.0,0.7,2.5,140.5,0.32,16.0,15.6,"10:29:36",1
"23/11/09","10:40",0.0,22.4,68.0,1018.2,165.7,0.7,1.8,122.8,0.36,16.2,15.7,"10:31:04",1
"23/11/09","10:50",0.0,22.3,67.5,1017.8,178.6,1.1,2.2,168.3,0.35,16.0,15.8,"10:43:12",1
"23/11/09","11:00",0.0,22.4,65.6,1017.5,157.4,1.0,2.6,88.0,0.33,15.7,15.9,"10:55:20",1
"23/11/09","11:10",0.0,22.4,66.3,1017.5,190.0,0.8,2.7,236.1,0.30,15.9,16.0,"11:00:16",1
"23/11/09","11:20",0.0,22.6,65.8,1017.3,109.8,1.0,2.6,112.3,0.33,15.9,16.1,"11:11:36",1
"23/11/09","11:30",0.0,22.7,65.7,1017.1,178.4,1.0,2.9,231.9,0.29,16.0,16.0,"11:20:02",1
"23/11/09","11:40",0.0,22.7,67.1,1016.8,178.8,1.3,3.1,221.6,0.33,16.3,16.4,"11:30:32",1
"23/11/09","11:50",0.0,22.9,64.9,1016.8,181.6,1.5,2.6,125.9,0.36,16.0,16.3,"11:42:00",1
"23/11/09","12:00",0.0,23.3,64.7,1016.6,114.9,1.1,2.7,119.6,0.36,16.3,16.4,"11:52:40",1
"23/11/09","12:10",0.0,23.0,64.9,1016.6,196.1,1.7,3.4,222.1,0.36,16.1,16.5,"12:05:36",1
"23/11/09","12:20",0.0,23.2,65.5,1016.1,180.1,1.6,3.5,206.1,0.36,16.4,16.6,"12:14:40",1
"23/11/09","12:30",0.0,23.6,64.1,1015.9,153.1,1.2,2.7,121.5,0.36,16.5,16.7,"12:23:44",1
"23/11/09","12:40",0.0,23.8,63.3,1015.6,124.5,1.2,2.6,132.2,0.35,16.5,16.7,"12:35:52",1
"23/11/09","12:50",0.0,23.9,62.4,1015.4,154.0,1.1,3.1,158.5,0.34,16.3,16.7,"12:46:56",1
"23/11/09","13:00",0.0,24.1,61.9,1015.6,184.7,1.1,2.4,160.6,0.33,16.4,16.9,"12:51:28",1
"23/11/09","13:10",0.0,23.9,62.4,1014.9,199.6,1.5,3.9,205.2,0.30,16.3,16.9,"13:00:16",1
"23/11/09","13:20",0.0,24.4,62.3,1014.5,222.1,0.8,2.6,228.1,0.32,16.8,17.3,"13:14:08",1
"23/11/09","13:30",0.0,24.4,61.0,1014.0,190.7,1.3,3.5,236.6,0.30,16.4,16.9,"13:23:04",1
"23/11/09","13:40",0.0,24.7,60.1,1013.8,182.5,1.0,2.9,221.0,0.28,16.5,17.1,"13:30:48",1
"23/11/09","13:50",0.0,24.4,60.3,1014.0,226.9,1.5,3.5,208.4,0.27,16.3,17.4,"13:44:24",1
"23/11/09","14:00",0.0,24.3,59.5,1013.8,213.3,1.7,4.4,222.7,0.25,16.0,17.4,"13:58:40",1
"23/11/09","14:10",0.0,24.7,59.4,1014.0,196.3,1.5,3.1,200.8,0.24,16.3,17.5,"14:00:40",1
"23/11/09","14:20",0.0,24.8,57.0,1014.2,175.2,1.5,3.6,225.4,0.22,15.7,17.5,"14:11:36",1
"23/11/09","14:30",0.0,24.8,57.5,1014.0,192.3,1.6,3.9,225.9,0.21,15.9,17.7,"14:24:48",1
"23/11/09","14:40",0.0,24.9,59.0,1013.8,191.4,1.7,4.1,221.8,0.19,16.4,17.7,"14:35:52",1
"23/11/09","14:50",0.0,25.3,59.6,1014.2,133.2,1.0,2.6,105.6,0.21,16.9,17.6,"14:49:04",1
"23/11/09","15:00",0.0,25.1,59.2,1014.0,62.3,1.0,3.4,100.9,0.16,16.6,17.6,"14:57:20",1
"23/11/09","15:10",0.0,24.9,60.6,1014.5,95.7,0.8,2.2,122.1,0.15,16.8,18.0,"15:00:16",1
"23/11/09","15:20",0.0,24.7,61.1,1014.7,62.1,1.0,2.6,105.7,0.14,16.7,17.8,"15:16:32",1
"23/11/09","15:30",0.0,24.5,61.8,1014.7,77.0,1.2,3.3,116.4,0.14,16.7,18.1,"15:27:52",1
"23/11/09","15:40",0.0,24.2,62.3,1014.7,78.7,1.0,2.4,62.5,0.08,16.6,17.9,"15:37:44",1
"23/11/09","15:50",0.0,23.7,63.5,1015.2,81.7,1.0,2.4,101.2,0.05,16.4,17.9,"15:48:24",1
"23/11/09","16:00",0.0,23.2,65.2,1014.9,87.6,1.1,2.8,127.7,0.03,16.3,17.9,"15:52:32",1
"23/11/09","16:10",0.0,22.8,66.3,1015.2,87.6,1.2,2.7,99.4,0.02,16.2,17.8,"16:03:20",1
"23/11/09","16:20",0.0,22.6,67.3,1015.2,85.9,0.8,1.9,66.8,0.01,16.3,17.8,"16:12:40",1
"23/11/09","16:30",0.0,22.2,68.0,1015.2,70.3,0.8,2.2,112.1,0.00,16.1,17.9,"16:27:52",1
"23/11/09","16:40",0.0,21.8,69.2,1015.2,56.9,1.0,2.5,64.1,0.00,15.9,17.9,"16:30:56",1
"23/11/09","16:50",0.0,21.4,70.2,1015.4,23.0,0.7,1.6,48.5,0.00,15.8,18.0,"16:47:36",1
"23/11/09","17:00",0.0,21.1,71.0,1015.6,349.9,0.7,2.0,357.8,0.00,15.7,18.0,"16:56:24",1
"23/11/09","17:10",0.0,20.9,72.0,1015.6,6.8,0.8,1.9,47.4,0.00,15.7,18.0,"17:08:56",1
"23/11/09","17:20",0.0,20.6,73.1,1015.6,7.9,0.7,2.1,34.3,0.00,15.7,17.9,"17:17:28",1
"23/11/09","17:30",0.0,20.3,74.1,1015.6,355.6,0.6,2.1,33.9,0.00,15.6,17.9,"17:24:24",1
"23/11/09","17:40",0.0,20.1,75.4,1016.1,35.8,0.8,2.4,107.8,0.00,15.7,17.9,"17:35:20",1
"23/11/09","17:50",0.0,19.8,76.3,1016.6,16.5,0.7,1.7,75.9,0.00,15.6,17.7,"17:42:00",1
"23/11/09","18:00",0.0,19.7,77.0,1016.8,21.5,0.8,1.9,115.1,0.00,15.6,17.7,"17:50:32",1
"23/11/09","18:10",0.0,19.5,77.3,1017.1,359.6,0.7,1.7,32.9,0.00,15.5,17.8,"18:01:20",1
"23/11/09","18:20",0.0,19.3,78.0,1016.6,336.3,0.7,1.6,328.9,0.00,15.4,17.7,"18:13:20",1
"23/11/09","18:30",0.0,18.8,78.7,1017.1,308.6,1.0,1.7,323.7,0.00,15.1,17.8,"18:24:08",1
"23/11/09","18:40",0.0,18.6,80.3,1017.1,299.2,1.2,1.8,321.5,0.00,15.2,17.6,"18:30:02",1
"23/11/09","18:50",0.0,18.3,81.5,1017.1,314.6,1.0,1.8,321.9,0.00,15.1,17.5,"18:40:08",1
"23/11/09","19:00",0.0,18.1,82.3,1017.3,326.2,0.8,1.4,343.0,0.00,15.1,17.7,"18:57:28",1
"23/11/09","19:10",0.0,17.7,83.1,1016.8,300.1,1.1,1.3,324.8,0.00,14.8,17.7,"19:07:36",1
"23/11/09","19:20",0.0,17.6,84.3,1016.8,321.0,1.2,1.8,317.5,0.00,15.0,17.7,"19:17:28",1
"23/11/09","19:30",0.0,17.5,85.4,1016.8,290.5,1.1,1.6,288.4,0.00,15.1,17.4,"19:24:48",1
"23/11/09","19:40",0.0,17.4,86.1,1017.3,296.9,1.1,2.0,315.4,0.00,15.1,17.7,"19:35:44",1
"23/11/09","19:50",0.0,17.5,86.5,1016.8,294.0,1.0,1.6,315.1,0.00,15.3,17.6,"19:43:36",1
"23/11/09","20:00",0.0,17.3,86.8,1016.8,315.9,1.1,1.4,307.7,0.00,15.1,17.5,"19:56:16",1
"23/11/09","20:10",0.0,17.0,87.1,1017.3,298.6,1.1,1.7,318.1,0.00,14.9,17.4,"20:01:28",1
"23/11/09","20:20",0.0,17.0,87.5,1017.3,296.0,1.1,1.6,302.9,0.00,15.0,17.6,"20:17:44",1
"23/11/09","20:30",0.0,16.8,87.9,1017.3,316.3,1.2,1.7,323.3,0.00,14.8,17.5,"20:28:56",1
"23/11/09","20:40",0.0,16.6,88.1,1017.3,312.1,1.1,1.6,328.5,0.00,14.7,17.2,"20:32:00",1
"23/11/09","20:50",0.0,16.3,88.4,1017.1,296.0,1.1,1.6,318.5,0.00,14.4,17.3,"20:49:30",1
"23/11/09","21:00",0.0,16.3,88.8,1016.8,300.0,1.3,1.9,307.7,0.00,14.5,17.3,"20:52:24",1
"23/11/09","21:10",0.0,16.1,89.2,1017.1,311.4,1.2,1.8,320.7,0.00,14.4,17.4,"21:00:08",1
"23/11/09","21:20",0.0,15.8,89.6,1017.3,303.3,1.2,1.7,318.6,0.00,14.1,17.4,"21:12:34",1
"23/11/09","21:30",0.0,15.6,90.0,1017.1,305.0,1.1,1.8,318.2,0.00,14.0,17.1,"21:29:18",1
"23/11/09","21:40",0.0,15.1,90.4,1017.1,299.0,1.1,1.6,318.7,0.00,13.6,17.2,"21:36:20",1
"23/11/09","21:50",0.0,15.0,90.7,1016.8,313.4,1.3,1.7,316.5,0.00,13.5,17.4,"21:41:14",1
"23/11/09","22:00",0.0,14.9,91.0,1017.1,309.5,1.1,1.7,315.3,0.00,13.5,17.2,"21:58:56",1
"23/11/09","22:10",0.0,15.2,91.4,1017.1,323.5,1.2,2.2,315.4,0.00,13.8,17.1,"22:01:36",1
"23/11/09","22:20",0.0,15.1,91.6,1016.8,310.1,1.3,1.9,321.2,0.00,13.8,17.2,"22:18:14",1
"23/11/09","22:30",0.0,14.9,92.0,1016.6,298.5,1.2,1.8,308.7,0.00,13.7,17.1,"22:24:56",1
"23/11/09","22:40",0.0,14.7,92.1,1016.6,297.4,1.0,1.4,303.1,0.00,13.5,17.1,"22:31:04",1
"23/11/09","22:50",0.0,14.5,92.4,1017.1,305.8,1.2,1.8,318.4,0.00,13.3,17.1,"22:42:40",1
"23/11/09","23:00",0.0,14.6,92.8,1016.6,317.1,1.3,1.8,320.1,0.00,13.5,17.0,"22:52:56",1
"23/11/09","23:10",0.0,14.3,92.9,1016.1,295.2,1.0,2.0,320.5,0.00,13.2,17.0,"23:00:18",1
"23/11/09","23:20",0.0,14.1,93.2,1016.4,290.7,1.0,1.2,306.6,0.00,13.1,16.9,"23:12:48",1
"23/11/09","23:30",0.0,14.2,93.5,1016.1,303.5,1.2,1.7,318.7,0.00,13.2,16.9,"23:26:24",1
"23/11/09","23:40",0.0,14.4,93.5,1016.4,303.8,1.2,1.4,321.3,0.00,13.4,16.9,"23:30:08",1
"23/11/09","23:50",0.0,14.6,93.7,1016.8,294.4,1.1,1.4,306.7,0.00,13.6,16.8,"23:46:16",1
"23/11/09","24:00",0.0,14.9,93.8,1016.6,310.7,1.3,1.8,317.3,0.00,14.0,16.9,"23:55:04",1
